Regional Weather Roundup
Issued by NWS

Home | Current Version | Previous Version | Text Only | Print | Product List | Glossary Off
Versions: 1 2 3 4 5 6 7 8 9 10 11 12 13 14 15 16 17 18 19 20 21 22 23 24 25 26 27 28 29 30 31 32 33 34 35 36 37 38 39 40 41 42 43 44 45 46 47 48 49 50

000
ASUS43 KDTX 282110
RWRMI
MICHIGAN HOURLY REGIONAL WEATHER ROUNDUP
NATIONAL WEATHER SERVICE DETROIT/PONTIAC MI
400 PM EST SAT FEB 28 2015

NOTE: "FAIR" INDICATES FEW OR NO CLOUDS BELOW 12,000 FEET WITH NO
SIGNIFICANT WEATHER AND/OR OBSTRUCTION TO VISIBILITY.

MIZ047>049-052>055-059>063-066>070-074>076-081>083-282200-
SOUTHEAST LOWER MICHIGAN

CITY           SKY/WX    TMP DP  RH WIND       PRES   REMARKS
ADRIAN         SUNNY     17   3  54 S6        30.66F
ALMA           SUNNY     20   4  49 S9        30.62F
ANN ARBOR      SUNNY     19   0  43 S7        30.64F
BAD AXE        SUNNY     22   4  44 W8        30.63F
DETROIT CITY   SUNNY     21   4  47 S9        30.67F
DETROIT        MOSUNNY   21   5  50 S6        30.67F
FLINT          SUNNY     24   3  40 W6        30.63F
GROSSE ILE     SUNNY     18   5  57 SE8       30.67F
HILLSDALE      SUNNY     19   2  48 S3        30.59F
HOWELL         SUNNY     22   0  38 SW7       30.60F

CITY           SKY/WX    TMP DP  RH WIND       PRES   REMARKS
JACKSON        SUNNY     20  -1  40 S7        30.60F
LAMBERTVILLE   MOSUNNY   23   1  39 S6        30.66F
LANSING        SUNNY     20  -1  40 S6        30.62F
LAPEER         NOT AVBL
MASON          SUNNY     21   1  42 S5        30.61F
MT. CLEMENS    SUNNY     19   6  59 S16       30.65F
PONTIAC        MOSUNNY   20   0  41 S7        30.61F
PORT HOPE        N/A     22   5  48 VRB7      30.63F
PORT HURON     SUNNY     21   5  49 S10       30.67F
TRI CITIES     SUNNY     22   3  44 SW8       30.63F
YPSILANTI      SUNNY     22   4  46 SW7       30.66F
$$
MIZ043>046-050>051-056>058-064>065-071>073-077>080-282200-
SOUTHWEST LOWER MICHIGAN

CITY           SKY/WX    TMP DP  RH WIND       PRES   REMARKS
BATTLE CREEK   SUNNY     20   2  45 S5        30.61F
BENTON HARBOR  SUNNY     19   1  45 SE6       30.61F
BIG RAPIDS     SUNNY     23   8  51 CALM      30.56F
COLDWATER      SUNNY     19  -1  42 SE5       30.61F
HOLLAND        SUNNY     21   7  54 SW9       30.62F
GRAND RAPIDS   MOSUNNY   20  -2  38 S6        30.61F
KALAMAZOO      SUNNY     19   1  45 S8        30.61F
MARSHALL       SUNNY     19   1  47 S8        30.61S
MUSKEGON       MOSUNNY   19   6  57 SW12      30.62F
$$
MIZ016>042-282200-
NORTHERN LOWER MICHIGAN

CITY           SKY/WX    TMP DP  RH WIND       PRES   REMARKS
ALPENA         SUNNY     26   4  38 S12       30.55F
BEAVER ISLAND  SUNNY     19  11  69 SW10G24   30.54F
BELLAIRE       SUNNY     26   5  40 W5        30.55F
CADILLAC       SUNNY     22   4  46 S9        30.50S
CHARLEVOIX     SUNNY     21  12  67 W8        30.59S
FRANKFORT      CLEAR     20  11  68 SW12G20   30.58S
GAYLORD        SUNNY     22   4  46 SW13      30.50F
GRAYLING       SUNNY     26   5  40 SW8       30.53S
HARBOR SPRINGS SUNNY     22  11  61 W8        30.55F
HOUGHTON LAKE  SUNNY     23   4  44 W7        30.54F
MANISTEE       SUNNY     21   7  53 S9        30.59F
OSCODA         SUNNY     23  10  57 S14       30.58F
PELLSTON       SUNNY     22   6  50 SW10      30.55F
TRAVERSE CITY  MOSUNNY   27   4  37 S8        30.54F
$$
MIZ007>008-015-282200-
EASTERN UPPER MICHIGAN

CITY           SKY/WX    TMP DP  RH WIND       PRES   REMARKS
KINROSS        SUNNY     21  10  63 SW9G18    30.51F
MACKINAC ISLAN SUNNY     19  10  67 W12G21    30.53F
NEWBERRY       SUNNY     19   7  59 S16G23    30.48F
S. S. MARIE    SUNNY     21   4  47 S14       30.51S
$$
MIZ004>006-011>014-085-282200-
CENTRAL UPPER MICHIGAN

CITY           SKY/WX    TMP DP  RH WIND       PRES   REMARKS
MANISTIQUE     SUNNY     20  10  64 S16G22    30.51F
ESCANABA       SUNNY     18   7  62 S17       30.50F
MENOMINEE      SUNNY     19   1  45 SW14      30.51F
SAWYER-GWINN   SUNNY     23   0  36 SW10      30.39F
$$
MIZ001>003-009>011-084-282200-
WESTERN UPPER MICHIGAN

CITY           SKY/WX    TMP DP  RH WIND       PRES   REMARKS
IRON MOUNTAIN  SUNNY     25  -3  29 SW9G21    30.40F
HOUGHTON       PTSUNNY   24  -3  30 SW13      30.34F
COPPER HARBOR    N/A     23   3  42 VRB3      30.39F
IRONWOOD       SUNNY     21   0  39 SW17      30.32F
$$

ABBREVIATIONS USED IN REMARKS
   TC - TEMPERATURE IN CELSIUS
  WCI - WIND CHILL INDEX
   HX - HEAT INDEX
  VSB - VISIBILITY



USA.gov is the U.S. government's official web portal to all federal, state and local government web resources and services.